Ankeny, IA

7:12 PM CST on November 17, 2019 (GMT -0600)
Ankeny Regional

Weather History for KIKV - October, 2019

Change the Weather History Date:

Wednesday, October 23, 2019

  Actual Average (WUND) Record (WUND)
Temperature  
Mean Temperature 45 °F -  
Max Temperature 57 °F - - (-1)
Min Temperature 33 °F - - (-1)
Degree Days  
Heating Degree Days 20    
Moisture  
Dew Point 39 °F    
Average Humidity 86    
Maximum Humidity 100    
Minimum Humidity 59    
Precipitation  
Precipitation 0.02 in - - ()
Sea Level Pressure  
Sea Level Pressure 29.92 in    
Wind  
Wind Speed 4 mph ()    
Max Wind Speed 17 mph    
Max Gust Speed 24 mph    
Visibility 9.7 miles    
Events Rain    
Averages and records for this station are not official NWS values.
T = Trace of Precipitation, MM = Missing Value Source: Averaged Metar Reports

Daily Weather History Graph

Daily Weather History Graph

Search for Another Location

Airport or City:

Astronomy

Oct. 23, 2019 Rise Set
Actual Time 7:35 AM CDT 6:21 PM CDT
Civil Twilight 7:07 AM CDT 6:49 PM CDT
Nautical Twilight 6:34 AM CDT 7:21 PM CDT
Astronomical Twilight 6:02 AM CDT 7:54 PM CDT
Moon 1:48 AM CDT (10/23) 4:17 PM CDT (10/23)
Length of Visible Light 11h 42m
Length of Day
10h 45m
Waning Crescent, 26% of the Moon is Illuminated
Oct 23
Waning Crescent
Oct 27
New
Nov 4
First Quarter
Nov 12
Full
Nov 19
Last Quarter

Hourly Weather History & Observations

Time (CDT) Temp. Windchill Dew Point Humidity Pressure Visibility Wind Dir Wind Speed Gust Speed Precip Events Conditions
12:15 AM 35.6 °F - 32.0 °F 87% 29.86 in 10.0 mi Calm Calm - N/A   Clear
12:35 AM 35.6 °F 32.8 °F 33.8 °F 93% 29.86 in 10.0 mi South 3.5 mph - N/A   Clear
12:55 AM 35.6 °F - 33.8 °F 93% 29.86 in 10.0 mi Calm Calm - N/A   Clear
1:15 AM 35.6 °F - 32.0 °F 87% 29.86 in 10.0 mi Calm Calm - N/A   Clear
1:55 AM 33.8 °F - 33.8 °F 100% 29.85 in 10.0 mi Calm Calm - N/A   Clear
2:15 AM 35.6 °F - 33.8 °F 93% 29.86 in 10.0 mi Calm Calm - N/A   Clear
2:35 AM 35.6 °F - 33.8 °F 93% 29.85 in 10.0 mi Calm Calm - N/A   Clear
2:55 AM 35.6 °F - 33.8 °F 93% 29.86 in 10.0 mi Calm Calm - N/A   Clear
3:15 AM 35.6 °F - 32.0 °F 87% 29.86 in 10.0 mi Calm Calm - N/A   Clear
3:35 AM 33.8 °F - 32.0 °F 93% 29.86 in 10.0 mi Calm Calm - N/A   Clear
3:55 AM 33.8 °F - 32.0 °F 93% 29.85 in 10.0 mi Calm Calm - N/A   Clear
4:15 AM 35.6 °F - 33.8 °F 93% 29.85 in 10.0 mi Calm Calm - N/A   Clear
4:35 AM 33.8 °F - 32.0 °F 93% 29.85 in 10.0 mi Calm Calm - N/A   Clear
4:55 AM 35.6 °F - 33.8 °F 93% 29.84 in 10.0 mi Calm Calm - N/A   Mostly Cloudy
5:15 AM 35.6 °F - 35.6 °F 100% 29.84 in 10.0 mi Calm Calm - N/A   Overcast
5:35 AM 37.4 °F 33.8 °F 35.6 °F 93% 29.85 in 10.0 mi South 4.6 mph - N/A   Overcast
5:55 AM 39.2 °F - 35.6 °F 87% 29.85 in 10.0 mi Calm Calm - N/A   Overcast
6:15 AM 39.2 °F 37.0 °F 37.4 °F 93% 29.86 in 10.0 mi South 3.5 mph - N/A   Overcast
6:35 AM 39.2 °F - 37.4 °F 93% 29.86 in 10.0 mi Calm Calm - N/A   Overcast
6:55 AM 39.2 °F - 37.4 °F 93% 29.86 in 10.0 mi Calm Calm - N/A   Overcast
7:15 AM 41.0 °F 38.0 °F 37.4 °F 87% 29.88 in 10.0 mi SSW 4.6 mph - N/A   Overcast
7:35 AM 41.0 °F - 37.4 °F 87% 29.87 in 10.0 mi Calm Calm - N/A   Overcast
7:55 AM 41.0 °F - 39.2 °F 93% 29.86 in 8.0 mi Calm Calm - N/A Rain Light Rain
8:15 AM 41.0 °F - 39.2 °F 93% 29.85 in 10.0 mi Calm Calm - N/A   Overcast
8:35 AM 41.0 °F - 39.2 °F 93% 29.87 in 4.0 mi Calm Calm - N/A Rain Light Rain
8:55 AM 41.0 °F - 39.2 °F 93% 29.87 in 9.0 mi Calm Calm - N/A   Mostly Cloudy
9:15 AM 42.8 °F - 41.0 °F 93% 29.86 in 10.0 mi Calm Calm - N/A   Mostly Cloudy
9:35 AM 42.8 °F 41.1 °F 41.0 °F 93% 29.87 in 10.0 mi SSE 3.5 mph - N/A   Mostly Cloudy
9:55 AM 44.6 °F 42.2 °F 41.0 °F 87% 29.88 in 10.0 mi SSE 4.6 mph - 0.01 in   Overcast
10:15 AM 44.6 °F 40.2 °F 42.8 °F 93% 29.87 in 10.0 mi SSE 8.1 mph - N/A   Overcast
10:35 AM 46.4 °F 43.5 °F 42.8 °F 87% 29.87 in 10.0 mi ESE 5.8 mph - N/A   Scattered Clouds
10:55 AM 48.2 °F - 42.8 °F 82% 29.86 in 10.0 mi SSE 5.8 mph - N/A   Clear
11:15 AM 50.0 °F - 44.6 °F 82% 29.85 in 10.0 mi SSE 8.1 mph - N/A   Clear
11:35 AM 51.8 °F - 44.6 °F 76% 29.84 in 10.0 mi SSE 6.9 mph - N/A   Clear
11:55 AM 53.6 °F - 44.6 °F 72% 29.84 in 10.0 mi SSE 8.1 mph - N/A   Partly Cloudy
12:15 PM 55.4 °F - 44.6 °F 67% 29.84 in 10.0 mi SSE 8.1 mph - N/A   Mostly Cloudy
12:35 PM 55.4 °F - 44.6 °F 67% 29.83 in 10.0 mi SSE 6.9 mph - N/A   Partly Cloudy
12:55 PM 57.2 °F - 42.8 °F 59% 29.80 in 10.0 mi SSE 9.2 mph 16.1 mph N/A   Partly Cloudy
1:15 PM 57.2 °F - 42.8 °F 59% 29.78 in 10.0 mi SE 11.5 mph - N/A   Partly Cloudy
1:35 PM 57.2 °F - 42.8 °F 59% 29.77 in 10.0 mi SE 12.7 mph - N/A   Mostly Cloudy
1:55 PM 57.2 °F - 42.8 °F 59% 29.85 in 10.0 mi NNW 6.9 mph 15.0 mph N/A Rain Light Rain
2:15 PM 53.6 °F - 46.4 °F 77% 29.84 in 10.0 mi North 11.5 mph - N/A   Overcast
2:35 PM 51.8 °F - 46.4 °F 82% 29.83 in 10.0 mi North 10.4 mph - N/A   Overcast
2:55 PM 51.8 °F - 48.2 °F 88% 29.83 in 9.0 mi North 11.5 mph - N/A Rain Light Rain
3:15 PM 50.0 °F - 46.4 °F 87% 29.83 in 10.0 mi NNE 12.7 mph 19.6 mph N/A   Partly Cloudy
3:35 PM 50.0 °F - 46.4 °F 87% 29.84 in 5.0 mi NNE 11.5 mph - N/A Rain Light Rain
3:55 PM 48.2 °F - 44.6 °F 87% 29.87 in 10.0 mi North 15.0 mph 21.9 mph 0.01 in   Scattered Clouds
4:15 PM 48.2 °F - 42.8 °F 82% 29.88 in 10.0 mi NNE 13.8 mph 21.9 mph N/A   Mostly Cloudy
4:35 PM 46.4 °F 40.1 °F 42.8 °F 87% 29.90 in 10.0 mi NNE 15.0 mph 23.0 mph N/A   Overcast
4:55 PM 46.4 °F 40.7 °F 41.0 °F 81% 29.92 in 10.0 mi NNE 12.7 mph 21.9 mph N/A   Overcast
5:15 PM 44.6 °F 37.2 °F 39.2 °F 81% 29.94 in 10.0 mi NNE 17.3 mph 24.2 mph N/A   Overcast
5:35 PM 44.6 °F 38.4 °F 39.2 °F 81% 29.95 in 10.0 mi NNE 12.7 mph - N/A   Overcast
5:55 PM 44.6 °F 38.8 °F 39.2 °F 81% 29.96 in 10.0 mi North 11.5 mph 21.9 mph N/A   Overcast
6:15 PM 44.6 °F 38.8 °F 39.2 °F 81% 29.99 in 10.0 mi North 11.5 mph 19.6 mph N/A   Overcast
6:35 PM 42.8 °F 35.8 °F 37.4 °F 81% 30.00 in 10.0 mi North 13.8 mph - N/A   Overcast
6:55 PM 42.8 °F 35.8 °F 39.2 °F 87% 30.02 in 10.0 mi North 13.8 mph 19.6 mph N/A   Overcast
7:15 PM 42.8 °F 37.0 °F 39.2 °F 87% 30.04 in 10.0 mi North 10.4 mph 19.6 mph N/A   Overcast
7:35 PM 42.8 °F 38.0 °F 37.4 °F 81% 30.06 in 10.0 mi North 8.1 mph 16.1 mph N/A   Overcast
7:55 PM 41.0 °F 34.3 °F 39.2 °F 93% 30.08 in 8.0 mi NNW 11.5 mph - N/A   Overcast
8:15 PM 41.0 °F 34.7 °F 39.2 °F 93% 30.08 in 6.0 mi North 10.4 mph - N/A   Overcast
8:35 PM 41.0 °F 35.2 °F 39.2 °F 93% 30.11 in 9.0 mi NNW 9.2 mph 17.3 mph N/A   Overcast
8:55 PM 41.0 °F 35.2 °F 37.4 °F 87% 30.11 in 10.0 mi North 9.2 mph 17.3 mph N/A   Overcast
9:15 PM 41.0 °F 34.7 °F 37.4 °F 87% 30.13 in 10.0 mi NNW 10.4 mph - N/A   Overcast
9:35 PM 41.0 °F 35.8 °F 37.4 °F 87% 30.13 in 10.0 mi North 8.1 mph - N/A   Overcast
10:15 PM 39.2 °F 32.0 °F 37.4 °F 93% 30.14 in 10.0 mi NNW 11.5 mph - N/A   Overcast
10:35 PM 39.2 °F 34.2 °F 37.4 °F 93% 30.15 in 10.0 mi NNW 6.9 mph - N/A   Overcast
10:55 PM 39.2 °F 34.2 °F 35.6 °F 87% 30.17 in 10.0 mi NW 6.9 mph - N/A   Mostly Cloudy
11:15 PM 37.4 °F 32.1 °F 35.6 °F 93% 30.19 in 10.0 mi WNW 6.9 mph - N/A   Mostly Cloudy
11:35 PM 39.2 °F 34.2 °F 37.4 °F 93% 30.20 in 10.0 mi West 6.9 mph - N/A   Overcast
11:55 PM 39.2 °F 34.2 °F 37.4 °F 93% 30.21 in 10.0 mi West 6.9 mph - N/A   Overcast